STARLINK-32767, 62601

Orbit data source: Space-Track

STARLINK-32767, 62601 is a payload satellite owned by SpaceX/Seattle (US) in LEO that was launched on Mon, 13 Jan 2025 UTC via an FALCON 9 launch vehicle from the Air Force Eastern Test Range (AFETR). Payload-class satellites include a variety of spacecraft equipped with specific instruments for various scientific and technological missions. These include communications satellites like Starlink; space stations such as the ISS; scientific satellites like the Hubble; Earth observation satellites from companies like Planet Labs, Umbra, and HawkEye 360; GPS; miniature CubeSats for education and research; and military/defense satellites.

Loading next visibility...
Identifier
62601, 2025-008Q
Orbit
LEO
Last TLE update
5 hours ago
Origin
Manufacturer
SpaceX/Seattle
Mission
Operational Commercial Communications
Bus & Motor
STARLINK V2M, Unknown motor
Mass
730 kg wet, ~700 kg dry
Launch date (UTC)
2025-01-13 (6 months ago)
Launch vehicle
FALCON 9
Launch site
Air Force Eastern Test Range (AFETR)
Object type
Payload
Rocket body
Debris
Shape & HBR
Box + 2 Pan, 29 m
Radar Cross Section
33.884 m², Large (>1 m²)

Expand to show TLE details & history

TLE from 5 hours ago
0 STARLINK-32767
1 62601U 25008Q   25182.19736777  .00011695  00000-0  43367-3 0  9993
2 62601  42.9991 258.0666 0000919 255.9046 104.1704 15.27591166 27160
Epoch: 2025-07-01T04:44Z
TLE epoch observation values (Epoch: 2025-07-01T04:44:12.575Z)
Latitude
0.00002°
Longitude
-92.48205°
Altitude
482.945 km
Speed
7.626 km/s
True Right ascension
17h 12m 15s
True Declination
0° 00' 00"
Sunlit
Object was in full shadow at epoch
Visualization orbit readout
Latitude
28.18673°
Longitude
-58.77869°
Altitude
483.821 km
Speed
7.628 km/s
Apparent Right ascension
15h 55m 27s
Apparent Declination
-16° 43' 55"
Sunlit
Object is in full shadow
Visualization observer readout
Local Sidereal Time
21:16:23
Azimuth
250.995° W
Elevation
-3.447°
Doppler factor
1
Orbital elements
Apogee altitude
485.592 km
Perigee altitude
484.33 km
Semi-major axis
6,863.098 km
Eccentricity
0.00009
Inclination
42.9991°
RAAN
258.0666°
Arg. of periapsis
255.9046°
True anomaly
Unknown
Mean anomaly
104.1704°
Eccentric anomaly
Unknown
Mean motion
3.81736 °/min
Orbital period
94.31 mins
BSTAR
0.00043367
Loading maneuver chart data...
Loading SW <> Apogee altitude chart data...
Loading historical data...
Loading historical data...
Loading historical data...
Loading historical data...
Loading historical data...
Loading historical data...
Loading historical data...

STARLINK-32767 Visibility forecast

Observer location: undefined°, undefined°

Span
Click to sort rows by Start time (UTC) header in descending order
Start Az.
Max El. time (UTC)
Max El. Az.
Max El.
End time (UTC)
End Az.
6 mins2025-07-01 09:42:04.232Z251.73° W2025-07-01 09:45:04.232Z20.188° NNE44.984°2025-07-01 09:48:04.232Z71.639° E
5 mins2025-07-01 11:22:04.232Z291.169° WNW2025-07-01 11:24:04.232Z351.582° N37.899°2025-07-01 11:27:04.232Z73.372° E
6 mins2025-07-01 13:01:04.232Z290.023° WNW2025-07-01 13:03:04.232Z311.632° NW43.942°2025-07-01 13:07:04.232Z105.952° ESE
5 mins2025-07-01 14:40:04.232Z257.351° W2025-07-01 14:42:04.232Z212.412° SW23.354°2025-07-01 14:45:04.232Z156.99° SSE
4 mins2025-07-02 07:37:04.232Z180.462° SSW2025-07-02 07:39:04.232Z134.767° SE20.683°2025-07-02 07:41:04.232Z98.435° ESE
5 mins2025-07-02 09:15:04.232Z251.043° W2025-07-02 09:17:04.232Z251.624° W44.489°2025-07-02 09:20:04.232Z71.821° E
|